| time (UTC) | temp F | wind direction | speed MPH | gust MPH | rain 1hr in | rain 24hr in | rain mn in | humidity % | barometer mb |
| 20260505085700 | 57 | 0 | 0.0 | 0.0 | 0.00 | 0.00 | 0.00 | 70 | 1012.8 |
| 20260505084700 | 59 | 0 | 0.0 | 0.0 | 0.00 | 0.00 | 0.00 | 70 | 1012.8 |
| 20260505084200 | 58 | 0 | 0.0 | 0.0 | 0.00 | 0.00 | 0.00 | 68 | 1012.8 |
| 20260505083659 | 58 | 0 | 0.0 | 0.0 | 0.00 | 0.00 | 0.00 | 70 | 1012.8 |
| 20260505083159 | 58 | 0 | 0.0 | 0.0 | 0.00 | 0.00 | 0.00 | 68 | 1012.8 |
| 20260505082658 | 58 | 0 | 0.0 | 0.0 | 0.00 | 0.00 | 0.00 | 66 | 1012.7 |
| 20260505075155 | 60 | 262 | 3.0 | 9.0 | 0.00 | 0.00 | 0.00 | 58 | 1012.3 |
| 20260505074653 | 61 | 208 | 2.0 | 6.0 | 0.00 | 0.00 | 0.00 | 57 | 1012.3 |
| 20260505073653 | 59 | 239 | 2.0 | 3.0 | 0.00 | 0.00 | 0.00 | 61 | 1012.3 |
| 20260505073152 | 61 | 238 | 1.0 | 5.0 | 0.00 | 0.00 | 0.00 | 60 | 1012.3 |
| 20260505072652 | 60 | 246 | 2.0 | 7.0 | 0.00 | 0.00 | 0.00 | 58 | 1012.3 |
| 20260505071649 | 61 | 221 | 1.0 | 6.0 | 0.00 | 0.00 | 0.00 | 59 | 1012.4 |
| 20260505071149 | 61 | 207 | 1.0 | 5.0 | 0.00 | 0.00 | 0.00 | 64 | 1012.3 |
| 20260505070649 | 60 | 187 | 1.0 | 4.0 | 0.00 | 0.00 | 0.00 | 66 | 1012.4 |
| 20260505070149 | 61 | 269 | 2.0 | 7.0 | 0.00 | 0.00 | 0.00 | 64 | 1012.4 |
| 20260505065648 | 60 | 269 | 1.0 | 4.0 | 0.00 | 0.00 | 0.00 | 66 | 1012.4 |
| 20260505065223 | 60 | 236 | 0.0 | 3.0 | 0.00 | 0.00 | 0.00 | 62 | 1012.4 |
| 20260505065147 | 60 | 236 | 0.0 | 3.0 | 0.00 | 0.00 | 0.00 | 62 | 1012.4 |
| 20260505064647 | 61 | 266 | 1.0 | 5.0 | 0.00 | 0.00 | 0.00 | 64 | 1012.4 |
| 20260505064147 | 59 | 262 | 2.0 | 5.0 | 0.00 | 0.00 | 0.00 | 67 | 1012.4 |
| 20260505063647 | 61 | 253 | 0.0 | 3.0 | 0.00 | 0.00 | 0.00 | 65 | 1012.5 |
| 20260505062646 | 62 | 256 | 3.0 | 5.0 | 0.00 | 0.00 | 0.00 | 60 | 1012.6 |
| 20260505062146 | 62 | 278 | 2.0 | 6.0 | 0.00 | 0.00 | 0.00 | 57 | 1012.7 |
| 20260505061145 | 62 | 266 | 3.0 | 6.0 | 0.00 | 0.00 | 0.00 | 57 | 1012.6 |
| 20260505060645 | 62 | 260 | 0.0 | 2.0 | 0.00 | 0.00 | 0.00 | 61 | 1012.6 |
| 20260505060145 | 61 | 274 | 0.0 | 3.0 | 0.00 | 0.00 | 0.00 | 60 | 1012.6 |
| 20260505055644 | 62 | 267 | 1.0 | 4.0 | 0.00 | 0.00 | 0.00 | 60 | 1012.6 |
| 20260505055144 | 61 | 264 | 1.0 | 4.0 | 0.00 | 0.00 | 0.00 | 63 | 1012.5 |
| 20260505054644 | 61 | 248 | 1.0 | 4.0 | 0.00 | 0.00 | 0.00 | 63 | 1012.5 |
| 20260505054143 | 63 | 262 | 1.0 | 5.0 | 0.00 | 0.00 | 0.00 | 59 | 1012.5 |
| 20260505053643 | 62 | 263 | 1.0 | 4.0 | 0.00 | 0.00 | 0.00 | 58 | 1012.5 |
| 20260505053143 | 61 | 233 | 0.0 | 0.0 | 0.00 | 0.00 | 0.00 | 63 | 1012.4 |
| 20260505052643 | 61 | 205 | 0.0 | 2.0 | 0.00 | 0.00 | 0.00 | 63 | 1012.3 |
| 20260505052142 | 62 | 170 | 0.0 | 2.0 | 0.00 | 0.00 | 0.00 | 60 | 1012.3 |
| 20260505051642 | 62 | 208 | 0.0 | 4.0 | 0.00 | 0.00 | 0.00 | 60 | 1012.2 |
| 20260505051142 | 63 | 240 | 1.0 | 4.0 | 0.00 | 0.00 | 0.00 | 57 | 1012.3 |
| 20260505050641 | 63 | 204 | 1.0 | 4.0 | 0.00 | 0.00 | 0.00 | 59 | 1012.2 |
| 20260505050141 | 63 | 264 | 1.0 | 5.0 | 0.00 | 0.00 | 0.00 | 57 | 1012.1 |
| 20260505041639 | 64 | 211 | 3.0 | 7.0 | 0.00 | 0.00 | 0.00 | 56 | 1011.8 |
| 20260505041138 | 64 | 228 | 2.0 | 7.0 | 0.00 | 0.00 | 0.00 | 56 | 1011.8 |
| 20260505040638 | 64 | 231 | 2.0 | 7.0 | 0.00 | 0.00 | 0.00 | 58 | 1011.7 |
| 20260505040138 | 63 | 249 | 3.0 | 8.0 | 0.00 | 0.00 | 0.00 | 59 | 1011.8 |
| 20260505035638 | 64 | 267 | 1.0 | 6.0 | 0.00 | 0.00 | 0.00 | 58 | 1011.6 |
| 20260505035137 | 64 | 260 | 2.0 | 9.0 | 0.00 | 0.00 | 0.07 | 59 | 1011.6 |
| 20260505034637 | 64 | 269 | 1.0 | 6.0 | 0.00 | 0.00 | 0.07 | 57 | 1011.6 |
| 20260505034137 | 64 | 231 | 2.0 | 4.0 | 0.00 | 0.00 | 0.07 | 57 | 1011.5 |
| 20260505033636 | 64 | 281 | 1.0 | 5.0 | 0.00 | 0.00 | 0.07 | 58 | 1011.4 |
| 20260505033136 | 65 | 219 | 2.0 | 7.0 | 0.00 | 0.00 | 0.07 | 57 | 1011.2 |
| 20260505032636 | 65 | 198 | 3.0 | 8.0 | 0.00 | 0.00 | 0.07 | 56 | 1011.1 |
| 20260505032135 | 65 | 174 | 3.0 | 9.0 | 0.00 | 0.00 | 0.07 | 54 | 1011.1 |
| 20260505031635 | 64 | 204 | 2.0 | 8.0 | 0.00 | 0.00 | 0.07 | 56 | 1011.1 |
| 20260505031135 | 65 | 278 | 1.0 | 9.0 | 0.00 | 0.00 | 0.07 | 56 | 1011.2 |
| 20260505030635 | 66 | 204 | 2.0 | 5.0 | 0.00 | 0.00 | 0.07 | 53 | 1011.2 |
| 20260505030134 | 66 | 229 | 2.0 | 6.0 | 0.00 | 0.00 | 0.07 | 55 | 1011.3 |
| 20260505025634 | 66 | 218 | 2.0 | 9.0 | 0.00 | 0.00 | 0.07 | 53 | 1011.2 |
| 20260505025134 | 66 | 288 | 2.0 | 6.0 | 0.00 | 0.00 | 0.07 | 55 | 1011.1 |
| 20260505024634 | 64 | 194 | 2.0 | 7.0 | 0.00 | 0.00 | 0.07 | 55 | 1011.2 |
| 20260505024133 | 66 | 198 | 3.0 | 6.0 | 0.00 | 0.00 | 0.07 | 54 | 1011.1 |
| 20260505023633 | 65 | 217 | 3.0 | 8.0 | 0.00 | 0.00 | 0.07 | 51 | 1011.1 |
| 20260505023133 | 66 | 236 | 3.0 | 7.0 | 0.00 | 0.00 | 0.07 | 53 | 1011.1 |
| 20260505022632 | 66 | 170 | 2.0 | 7.0 | 0.00 | 0.00 | 0.07 | 53 | 1011.2 |
| 20260505022131 | 66 | 156 | 2.0 | 11.0 | 0.00 | 0.00 | 0.07 | 54 | 1011.1 |
| 20260505021631 | 66 | 253 | 1.0 | 5.0 | 0.00 | 0.00 | 0.07 | 54 | 1011.2 |
| 20260505021131 | 66 | 176 | 2.0 | 8.0 | 0.00 | 0.00 | 0.07 | 54 | 1011.2 |
| 20260505020630 | 65 | 190 | 2.0 | 7.0 | 0.00 | 0.00 | 0.07 | 54 | 1011.2 |
| 20260505020130 | 65 | 207 | 1.0 | 7.0 | 0.00 | 0.00 | 0.07 | 55 | 1011.2 |
| 20260505015630 | 67 | 166 | 1.0 | 6.0 | 0.00 | 0.00 | 0.07 | 54 | 1011.2 |
| 20260505015130 | 67 | 169 | 2.0 | 6.0 | 0.00 | 0.00 | 0.07 | 52 | 1011.1 |
| 20260505014629 | 65 | 255 | 1.0 | 4.0 | 0.00 | 0.00 | 0.07 | 54 | 1011.2 |
| 20260505014129 | 66 | 210 | 1.0 | 6.0 | 0.00 | 0.00 | 0.07 | 54 | 1011.2 |
| 20260505013629 | 67 | 221 | 2.0 | 5.0 | 0.00 | 0.00 | 0.07 | 51 | 1011.2 |
| 20260505012628 | 66 | 181 | 0.0 | 3.0 | 0.00 | 0.00 | 0.07 | 54 | 1011.2 |
| 20260505012128 | 65 | 262 | 0.0 | 4.0 | 0.00 | 0.00 | 0.07 | 57 | 1011.2 |
| 20260505011628 | 66 | 198 | 1.0 | 4.0 | 0.00 | 0.00 | 0.07 | 56 | 1011.1 |
| 20260505010627 | 65 | 204 | 1.0 | 4.0 | 0.00 | 0.00 | 0.07 | 56 | 1011.0 |
| 20260505010127 | 67 | 195 | 0.0 | 3.0 | 0.00 | 0.00 | 0.07 | 52 | 1011.0 |
| 20260505005626 | 66 | 0 | 0.0 | 0.0 | 0.00 | 0.00 | 0.07 | 49 | 1011.0 |
| 20260505005126 | 66 | 0 | 0.0 | 0.0 | 0.00 | 0.00 | 0.07 | 45 | 1010.9 |
| 20260505004626 | 66 | 0 | 0.0 | 0.0 | 0.00 | 0.00 | 0.07 | 44 | 1010.9 |
| 20260505004126 | 67 | 0 | 0.0 | 0.0 | 0.00 | 0.00 | 0.07 | 40 | 1010.9 |
| 20260505003625 | 68 | 285 | 0.0 | 2.0 | 0.00 | 0.00 | 0.07 | 36 | 1010.8 |
| 20260505003125 | 66 | 0 | 0.0 | 0.0 | 0.00 | 0.00 | 0.07 | 42 | 1010.8 |
| 20260505002625 | 67 | 0 | 0.0 | 0.0 | 0.00 | 0.00 | 0.07 | 40 | 1010.6 |
| 20260505002125 | 68 | 0 | 0.0 | 0.0 | 0.00 | 0.00 | 0.07 | 41 | 1010.6 |
| 20260505001624 | 68 | 231 | 0.0 | 1.0 | 0.00 | 0.00 | 0.07 | 38 | 1010.8 |
| 20260505001124 | 68 | 0 | 0.0 | 0.0 | 0.00 | 0.00 | 0.07 | 40 | 1010.8 |
| 20260505000624 | 69 | 264 | 1.0 | 6.0 | 0.00 | 0.00 | 0.07 | 34 | 1010.8 |
| 20260505000123 | 71 | 238 | 2.0 | 8.0 | 0.00 | 0.00 | 0.07 | 29 | 1010.8 |
| 20260504235623 | 72 | 266 | 5.0 | 10.0 | 0.00 | 0.00 | 0.07 | 27 | 1010.8 |
| 20260504235123 | 72 | 269 | 5.0 | 11.0 | 0.00 | 0.00 | 0.07 | 27 | 1010.8 |
| 20260504234622 | 72 | 273 | 5.0 | 10.0 | 0.00 | 0.00 | 0.07 | 24 | 1010.6 |
| 20260504234122 | 72 | 277 | 4.0 | 9.0 | 0.00 | 0.00 | 0.07 | 27 | 1010.6 |
| 20260504233622 | 73 | 264 | 4.0 | 9.0 | 0.00 | 0.00 | 0.07 | 27 | 1010.6 |
| 20260504233122 | 73 | 263 | 3.0 | 10.0 | 0.00 | 0.00 | 0.07 | 29 | 1010.6 |
| 20260504232621 | 73 | 253 | 3.0 | 7.0 | 0.00 | 0.00 | 0.07 | 32 | 1010.8 |
| 20260504232121 | 73 | 271 | 2.0 | 5.0 | 0.00 | 0.00 | 0.07 | 36 | 1010.6 |
| 20260504231621 | 72 | 215 | 1.0 | 5.0 | 0.00 | 0.00 | 0.07 | 38 | 1010.8 |
| 20260504231120 | 73 | 248 | 1.0 | 4.0 | 0.00 | 0.00 | 0.07 | 40 | 1010.8 |
| 20260504230620 | 75 | 260 | 2.0 | 5.0 | 0.00 | 0.00 | 0.07 | 34 | 1010.8 |
| 20260504230120 | 73 | 264 | 2.0 | 6.0 | 0.00 | 0.00 | 0.07 | 39 | 1010.8 |
| 20260504225620 | 72 | 212 | 1.0 | 6.0 | 0.00 | 0.00 | 0.07 | 43 | 1010.6 |
| 20260504225119 | 73 | 228 | 1.0 | 4.0 | 0.00 | 0.00 | 0.07 | 43 | 1010.8 |
| 20260504224619 | 73 | 145 | 2.0 | 6.0 | 0.00 | 0.00 | 0.07 | 39 | 1010.8 |
| 20260504224119 | 74 | 219 | 1.0 | 6.0 | 0.00 | 0.00 | 0.07 | 39 | 1010.8 |
| 20260504223619 | 74 | 233 | 1.0 | 8.0 | 0.00 | 0.00 | 0.07 | 38 | 1010.9 |
| 20260504222617 | 74 | 128 | 1.0 | 6.0 | 0.00 | 0.00 | 0.07 | 39 | 1011.0 |
| 20260504222116 | 74 | 198 | 0.0 | 3.0 | 0.00 | 0.00 | 0.07 | 38 | 1011.0 |
| 20260504221616 | 74 | 173 | 2.0 | 7.0 | 0.00 | 0.00 | 0.07 | 37 | 1011.1 |
| 20260504221116 | 76 | 226 | 1.0 | 3.0 | 0.00 | 0.00 | 0.07 | 37 | 1011.0 |
| 20260504220115 | 76 | 200 | 3.0 | 7.0 | 0.00 | 0.00 | 0.07 | 35 | 1011.0 |
| 20260504215615 | 75 | 152 | 3.0 | 13.0 | 0.00 | 0.00 | 0.07 | 35 | 1011.0 |
| 20260504215115 | 73 | 179 | 4.0 | 10.0 | 0.00 | 0.00 | 0.07 | 35 | 1011.1 |
| 20260504214614 | 74 | 187 | 5.0 | 9.0 | 0.00 | 0.00 | 0.07 | 34 | 1011.1 |
| 20260504214114 | 74 | 250 | 4.0 | 18.0 | 0.00 | 0.00 | 0.07 | 34 | 1011.0 |
| 20260504213614 | 74 | 195 | 4.0 | 10.0 | 0.00 | 0.00 | 0.07 | 35 | 1011.0 |
| 20260504213114 | 76 | 165 | 4.0 | 9.0 | 0.00 | 0.00 | 0.07 | 33 | 1011.0 |
| 20260504212613 | 77 | 236 | 5.0 | 11.0 | 0.00 | 0.00 | 0.07 | 31 | 1010.9 |
| 20260504212113 | 79 | 224 | 4.0 | 9.0 | 0.00 | 0.00 | 0.07 | 32 | 1011.0 |
| 20260504211613 | 79 | 190 | 5.0 | 11.0 | 0.00 | 0.00 | 0.07 | 30 | 1010.9 |
| 20260504211112 | 79 | 169 | 4.0 | 12.0 | 0.00 | 0.00 | 0.07 | 30 | 1011.0 |
| 20260504210612 | 78 | 203 | 6.0 | 19.0 | 0.00 | 0.00 | 0.07 | 31 | 1011.1 |
| 20260504210112 | 79 | 153 | 6.0 | 15.0 | 0.00 | 0.00 | 0.07 | 29 | 1011.1 |
| 20260504205611 | 78 | 256 | 5.0 | 11.0 | 0.00 | 0.00 | 0.07 | 31 | 1011.1 |
| 20260504205111 | 77 | 160 | 6.0 | 17.0 | 0.00 | 0.00 | 0.07 | 32 | 1011.2 |
| 20260504204111 | 76 | 264 | 5.0 | 11.0 | 0.00 | 0.00 | 0.07 | 32 | 1011.4 |
| 20260504203610 | 76 | 173 | 7.0 | 17.0 | 0.00 | 0.00 | 0.07 | 36 | 1011.4 |
| 20260504203110 | 75 | 184 | 5.0 | 13.0 | 0.00 | 0.00 | 0.07 | 37 | 1011.5 |
| 20260504202610 | 78 | 193 | 6.0 | 14.0 | 0.00 | 0.00 | 0.07 | 33 | 1011.6 |
| 20260504202110 | 78 | 166 | 5.0 | 11.0 | 0.00 | 0.00 | 0.07 | 34 | 1011.6 |
| 20260504201609 | 76 | 117 | 4.0 | 14.0 | 0.00 | 0.00 | 0.07 | 33 | 1011.8 |
| 20260504201109 | 77 | 179 | 5.0 | 10.0 | 0.00 | 0.00 | 0.07 | 29 | 1011.9 |
| 20260504200609 | 80 | 155 | 4.0 | 10.0 | 0.00 | 0.00 | 0.07 | 29 | 1011.9 |
| 20260504195608 | 77 | 256 | 6.0 | 15.0 | 0.00 | 0.00 | 0.07 | 33 | 1012.1 |
| 20260504195108 | 76 | 259 | 5.0 | 12.0 | 0.00 | 0.00 | 0.07 | 31 | 1012.2 |
| 20260504194608 | 77 | 274 | 5.0 | 11.0 | 0.00 | 0.00 | 0.07 | 33 | 1012.2 |
| 20260504194107 | 75 | 266 | 4.0 | 10.0 | 0.00 | 0.00 | 0.07 | 39 | 1012.3 |
| 20260504192607 | 78 | 264 | 4.0 | 9.0 | 0.00 | 0.00 | 0.07 | 36 | 1012.4 |
| 20260504191104 | 76 | 277 | 6.0 | 13.0 | 0.00 | 0.00 | 0.07 | 36 | 1012.7 |
| 20260504190603 | 76 | 240 | 6.0 | 15.0 | 0.00 | 0.00 | 0.07 | 39 | 1012.8 |
| 20260504185603 | 75 | 246 | 4.0 | 11.0 | 0.00 | 0.00 | 0.07 | 37 | 1012.8 |
| 20260504185102 | 77 | 271 | 4.0 | 10.0 | 0.00 | 0.00 | 0.07 | 37 | 1012.9 |
| 20260504184602 | 77 | 183 | 5.0 | 13.0 | 0.00 | 0.00 | 0.07 | 38 | 1013.2 |
| 20260504184102 | 75 | 198 | 5.0 | 13.0 | 0.00 | 0.00 | 0.07 | 38 | 1013.2 |
| 20260504183602 | 75 | 173 | 4.0 | 12.0 | 0.00 | 0.00 | 0.07 | 36 | 1013.3 |
| 20260504183102 | 74 | 278 | 7.0 | 17.0 | 0.00 | 0.00 | 0.07 | 43 | 1013.4 |
| 20260504182601 | 73 | 269 | 9.0 | 17.0 | 0.00 | 0.00 | 0.07 | 37 | 1013.4 |
| 20260504182101 | 74 | 253 | 5.0 | 12.0 | 0.00 | 0.00 | 0.07 | 38 | 1013.5 |
| 20260504181600 | 73 | 252 | 6.0 | 14.0 | 0.00 | 0.00 | 0.07 | 40 | 1013.7 |
| 20260504181100 | 75 | 245 | 4.0 | 12.0 | 0.00 | 0.00 | 0.07 | 41 | 1013.6 |
| 20260504180600 | 73 | 260 | 7.0 | 18.0 | 0.00 | 0.00 | 0.07 | 42 | 1013.8 |
| 20260504180059 | 72 | 267 | 5.0 | 9.0 | 0.00 | 0.00 | 0.07 | 39 | 1013.7 |
| 20260504175558 | 72 | 242 | 6.0 | 14.0 | 0.00 | 0.00 | 0.07 | 43 | 1013.8 |
| 20260504175058 | 73 | 256 | 8.0 | 17.0 | 0.00 | 0.00 | 0.07 | 43 | 1013.9 |
| 20260504174558 | 73 | 217 | 6.0 | 13.0 | 0.00 | 0.00 | 0.07 | 38 | 1014.0 |
| 20260504174058 | 74 | 170 | 4.0 | 11.0 | 0.00 | 0.00 | 0.07 | 46 | 1013.8 |
| 20260504172557 | 72 | 191 | 5.0 | 11.0 | 0.00 | 0.00 | 0.07 | 43 | 1014.2 |
| 20260504171556 | 71 | 201 | 6.0 | 12.0 | 0.00 | 0.00 | 0.07 | 45 | 1014.2 |
| 20260504171056 | 71 | 243 | 7.0 | 15.0 | 0.00 | 0.00 | 0.07 | 45 | 1014.3 |
| 20260504170556 | 71 | 273 | 7.0 | 14.0 | 0.00 | 0.00 | 0.07 | 42 | 1014.4 |
| 20260504150539 | 62 | 197 | 5.0 | 12.0 | 0.00 | 0.00 | 0.07 | 59 | 1016.0 |
| 20260504141036 | 59 | 172 | 3.0 | 8.0 | 0.00 | 0.00 | 0.07 | 72 | 1016.6 |
| 20260504140535 | 57 | 222 | 2.0 | 6.0 | 0.00 | 0.00 | 0.07 | 74 | 1016.6 |
| 20260504110514 | 48 | 0 | 0.0 | 0.0 | 0.00 | 0.00 | 0.06 | 97 | 1015.1 |
| 20260504100511 | 50 | 274 | 1.0 | 4.0 | 0.00 | 0.00 | 0.02 | 82 | 1015.8 |